Simultaneous Nadir Overpasses (SNOs) Predictions

Prediction of SNOs over PacNW region [( 10.00, 139.50) to ( 22.70, 165.60)] between AQUA and NPP Satellites:

Table of predicted SNOs over PacNW region for the next 30.0 days since TLE Epoch: 3/12/2016
Index Date (AQUA) Time (AQUA) AQUA Lat,Lon Date (NPP) Time (NPP) NPP Lat,Lon Distance(km) Time Diff (sec)
1 03/18/2016 15:10:24 22.58, 159.79 03/18/2016 15:11:59 23.13, 157.33 259.27 95
2 03/21/2016 03:32:15 22.66, 147.46 03/21/2016 03:28:46 24.71, 145.37 312.20 209
3 03/26/2016 15:59:52 22.59, 147.42 03/26/2016 16:02:35 23.18, 144.67 289.82 163
4 04/03/2016 15:10:24 22.61, 159.80 04/03/2016 15:11:43 23.16, 157.37 256.56 79
5 04/06/2016 03:32:12 22.68, 147.48 04/06/2016 03:28:43 25.54, 145.20 394.47 209
